Time,TemperatureF,DewpointF,PressureIn,WindDirection,WindDirectionDegrees,WindSpeedMPH,WindSpeedGustMPH,Humidity,HourlyPrecipIn,Conditions,Clouds,dailyrainin,SoftwareType,DateUTC
2013-05-02 00:04:00,57.7,55.1,30.08,NW,306,0.0,0.0,91,0.00,,,0.00,Wunderground v.1.15,2013-05-02 07:04:00,
2013-05-02 00:13:00,57.6,55.0,30.08,NW,306,0.0,0.0,91,0.00,,,0.00,Wunderground v.1.15,2013-05-02 07:13:00,
2013-05-02 00:24:00,57.2,54.6,30.08,NW,306,0.0,0.0,91,0.00,,,0.00,Wunderground v.1.15,2013-05-02 07:24:00,
2013-05-02 00:33:00,56.9,54.3,30.08,NW,306,0.0,0.0,91,0.00,,,0.00,Wunderground v.1.15,2013-05-02 07:33:00,
2013-05-02 00:43:00,56.8,54.5,30.08,NW,306,0.0,0.0,92,0.00,,,0.00,Wunderground v.1.15,2013-05-02 07:43:00,
2013-05-02 00:53:00,56.6,54.3,30.08,NW,306,0.0,0.0,92,0.00,,,0.00,Wunderground v.1.15,2013-05-02 07:53:00,
2013-05-02 01:04:00,56.3,54.0,30.08,NW,306,0.0,0.0,92,0.00,,,0.00,Wunderground v.1.15,2013-05-02 08:04:00,
2013-05-02 01:13:00,56.3,54.3,30.08,NW,306,0.0,0.0,93,0.00,,,0.00,Wunderground v.1.15,2013-05-02 08:13:00,
2013-05-02 01:24:00,56.4,54.4,30.08,NW,306,0.0,0.0,93,0.00,,,0.00,Wunderground v.1.15,2013-05-02 08:24:00,
2013-05-02 01:34:00,56.6,54.6,30.07,NW,306,0.0,0.0,93,0.00,,,0.00,Wunderground v.1.15,2013-05-02 08:34:00,
2013-05-02 01:44:00,56.8,54.8,30.07,NW,306,0.0,0.0,93,0.00,,,0.00,Wunderground v.1.15,2013-05-02 08:44:00,
2013-05-02 01:53:00,56.9,54.9,30.07,NW,306,0.0,0.0,93,0.00,,,0.00,Wunderground v.1.15,2013-05-02 08:53:00,
2013-05-02 02:03:00,56.9,54.9,30.07,NW,306,0.0,0.0,93,0.00,,,0.00,Wunderground v.1.15,2013-05-02 09:03:00,
2013-05-02 02:14:00,56.6,54.6,30.07,NW,306,0.0,0.0,93,0.00,,,0.00,Wunderground v.1.15,2013-05-02 09:14:00,
2013-05-02 02:24:00,56.4,54.4,30.06,NW,306,0.0,0.0,93,0.00,,,0.00,Wunderground v.1.15,2013-05-02 09:24:00,
2013-05-02 02:34:00,56.3,54.3,30.06,NW,306,0.0,0.0,93,0.00,,,0.00,Wunderground v.1.15,2013-05-02 09:34:00,
2013-05-02 02:43:00,56.2,54.2,30.06,NW,306,0.0,0.0,93,0.00,,,0.00,Wunderground v.1.15,2013-05-02 09:43:00,
2013-05-02 02:53:00,56.2,54.2,30.06,NW,306,0.0,0.0,93,0.00,,,0.00,Wunderground v.1.15,2013-05-02 09:53:00,
2013-05-02 03:04:00,56.2,54.2,30.06,NW,306,0.0,0.0,93,0.00,,,0.00,Wunderground v.1.15,2013-05-02 10:04:00,
2013-05-02 03:13:00,56.2,54.2,30.06,NW,306,0.0,0.0,93,0.00,,,0.00,Wunderground v.1.15,2013-05-02 10:13:00,
2013-05-02 03:23:00,56.8,55.1,30.06,NW,306,0.0,0.0,94,0.00,,,0.00,Wunderground v.1.15,2013-05-02 10:23:00,
2013-05-02 03:34:00,56.9,54.9,30.06,NW,306,0.0,0.0,93,0.00,,,0.00,Wunderground v.1.15,2013-05-02 10:34:00,
2013-05-02 03:44:00,56.8,54.5,30.06,NW,306,0.0,0.0,92,0.00,,,0.00,Wunderground v.1.15,2013-05-02 10:44:00,
2013-05-02 03:54:00,56.6,54.3,30.06,NW,306,0.0,0.0,92,0.00,,,0.00,Wunderground v.1.15,2013-05-02 10:54:00,
2013-05-02 04:04:00,56.4,54.1,30.06,NW,306,0.0,0.0,92,0.00,,,0.00,Wunderground v.1.15,2013-05-02 11:04:00,
2013-05-02 04:14:00,56.1,53.8,30.06,NW,306,0.0,0.0,92,0.00,,,0.00,Wunderground v.1.15,2013-05-02 11:14:00,
2013-05-02 04:24:00,55.8,53.5,30.06,NW,306,0.0,0.0,92,0.00,,,0.00,Wunderground v.1.15,2013-05-02 11:24:00,
2013-05-02 04:33:00,55.5,53.2,30.06,NW,306,0.0,0.0,92,0.00,,,0.00,Wunderground v.1.15,2013-05-02 11:33:00,
2013-05-02 04:43:00,55.2,52.9,30.06,NW,306,0.0,0.0,92,0.00,,,0.00,Wunderground v.1.15,2013-05-02 11:43:00,
2013-05-02 04:53:00,55.1,53.1,30.06,NW,306,0.0,0.0,93,0.00,,,0.00,Wunderground v.1.15,2013-05-02 11:53:00,
2013-05-02 05:04:00,55.1,53.1,30.06,NW,306,0.0,0.0,93,0.00,,,0.00,Wunderground v.1.15,2013-05-02 12:04:00,
2013-05-02 05:14:00,55.6,53.9,30.06,NW,306,0.0,0.0,94,0.00,,,0.00,Wunderground v.1.15,2013-05-02 12:14:00,
2013-05-02 05:24:00,56.1,54.4,30.06,NW,306,0.0,0.0,94,0.00,,,0.00,Wunderground v.1.15,2013-05-02 12:24:00,
2013-05-02 05:34:00,56.6,54.9,30.06,North,355,0.0,0.0,94,0.00,,,0.00,Wunderground v.1.15,2013-05-02 12:34:00,
2013-05-02 05:44:00,56.9,54.9,30.07,North,355,0.0,0.0,93,0.00,,,0.00,Wunderground v.1.15,2013-05-02 12:44:00,
2013-05-02 05:54:00,57.2,55.2,30.07,North,355,0.0,0.0,93,0.00,,,0.00,Wunderground v.1.15,2013-05-02 12:54:00,
2013-05-02 06:04:00,57.5,55.5,30.07,West,267,0.0,0.0,93,0.00,,,0.00,Wunderground v.1.15,2013-05-02 13:04:00,
2013-05-02 06:14:00,57.5,55.5,30.07,West,267,0.0,0.0,93,0.00,,,0.00,Wunderground v.1.15,2013-05-02 13:14:00,
2013-05-02 06:24:00,57.5,55.5,30.07,West,268,0.0,0.0,93,0.00,,,0.00,Wunderground v.1.15,2013-05-02 13:24:00,
2013-05-02 06:34:00,57.5,55.5,30.08,SW,227,0.0,0.0,93,0.00,,,0.00,Wunderground v.1.15,2013-05-02 13:34:00,
2013-05-02 06:43:00,57.5,55.5,30.08,NNE,22,0.0,0.0,93,0.00,,,0.00,Wunderground v.1.15,2013-05-02 13:43:00,
2013-05-02 06:53:00,57.5,55.5,30.08,NNE,22,0.0,0.0,93,0.00,,,0.00,Wunderground v.1.15,2013-05-02 13:53:00,
2013-05-02 07:04:00,57.6,55.6,30.08,NNE,22,0.0,0.0,93,0.00,,,0.00,Wunderground v.1.15,2013-05-02 14:04:00,
2013-05-02 07:14:00,57.8,55.8,30.08,NNE,22,0.0,0.0,93,0.00,,,0.00,Wunderground v.1.15,2013-05-02 14:14:00,
2013-05-02 07:24:00,58.0,56.0,30.08,NNE,22,0.0,0.0,93,0.00,,,0.00,Wunderground v.1.15,2013-05-02 14:24:00,
2013-05-02 07:34:00,58.2,55.9,30.08,NW,323,0.0,0.0,92,0.00,,,0.00,Wunderground v.1.15,2013-05-02 14:34:00,
2013-05-02 07:44:00,58.5,56.2,30.08,NW,309,0.0,2.0,92,0.00,,,0.00,Wunderground v.1.15,2013-05-02 14:44:00,
2013-05-02 07:54:00,58.8,56.5,30.09,WSW,242,0.0,0.0,92,0.00,,,0.00,Wunderground v.1.15,2013-05-02 14:54:00,
2013-05-02 08:03:00,59.3,56.7,30.08,West,262,0.0,1.0,91,0.00,,,0.00,Wunderground v.1.15,2013-05-02 15:03:00,
2013-05-02 08:14:00,59.8,56.9,30.08,NNW,333,1.0,4.0,90,0.00,,,0.00,Wunderground v.1.15,2013-05-02 15:14:00,
2013-05-02 08:24:00,60.5,57.2,30.09,WSW,249,0.0,0.0,89,0.00,,,0.00,Wunderground v.1.15,2013-05-02 15:24:00,
2013-05-02 08:33:00,61.1,57.2,30.09,West,272,0.0,0.0,87,0.00,,,0.00,Wunderground v.1.15,2013-05-02 15:33:00,
2013-05-02 08:43:00,61.1,56.9,30.09,West,265,0.0,0.0,86,0.00,,,0.00,Wunderground v.1.15,2013-05-02 15:43:00,
2013-05-02 08:54:00,61.3,57.1,30.09,WSW,238,0.0,0.0,86,0.00,,,0.00,Wunderground v.1.15,2013-05-02 15:54:00,
2013-05-02 09:03:00,61.2,57.3,30.09,West,265,2.0,3.0,87,0.00,,,0.00,Wunderground v.1.15,2013-05-02 16:03:00,
2013-05-02 09:13:00,61.8,57.6,30.09,SW,226,2.0,2.0,86,0.00,,,0.00,Wunderground v.1.15,2013-05-02 16:13:00,
2013-05-02 09:24:00,62.2,58.0,30.09,WNW,290,2.0,2.0,86,0.00,,,0.00,Wunderground v.1.15,2013-05-02 16:24:00,
2013-05-02 09:34:00,62.4,58.2,30.09,WSW,258,3.0,8.0,86,0.00,,,0.00,Wunderground v.1.15,2013-05-02 16:34:00,
2013-05-02 09:44:00,62.9,58.3,30.08,West,267,3.0,3.0,85,0.00,,,0.00,Wunderground v.1.15,2013-05-02 16:44:00,
2013-05-02 09:54:00,63.4,58.5,30.09,West,266,4.0,7.0,84,0.00,,,0.00,Wunderground v.1.15,2013-05-02 16:54:00,
2013-05-02 10:03:00,63.7,58.8,30.09,West,261,3.0,3.0,84,0.00,,,0.00,Wunderground v.1.15,2013-05-02 17:03:00,
2013-05-02 10:13:00,64.0,59.4,30.09,SSW,200,2.0,2.0,85,0.00,,,0.00,Wunderground v.1.15,2013-05-02 17:13:00,
2013-05-02 10:24:00,63.7,58.8,30.09,West,279,2.0,2.0,84,0.00,,,0.00,Wunderground v.1.15,2013-05-02 17:24:00,
2013-05-02 10:34:00,63.6,59.0,30.09,SW,232,4.0,4.0,85,0.00,,,0.00,Wunderground v.1.15,2013-05-02 17:34:00,
2013-05-02 10:44:00,64.4,59.5,30.09,WNW,303,3.0,3.0,84,0.00,,,0.00,Wunderground v.1.15,2013-05-02 17:44:00,
2013-05-02 10:53:00,65.1,60.1,30.09,West,279,3.0,3.0,84,0.00,,,0.00,Wunderground v.1.15,2013-05-02 17:53:00,
2013-05-02 11:04:00,65.3,59.7,30.09,West,275,3.0,12.0,82,0.00,,,0.00,Wunderground v.1.15,2013-05-02 18:04:00,
2013-05-02 11:14:00,65.0,60.0,30.08,West,266,3.0,3.0,84,0.00,,,0.00,Wunderground v.1.15,2013-05-02 18:14:00,
2013-05-02 11:24:00,65.1,59.8,30.08,West,273,5.0,7.0,83,0.00,,,0.00,Wunderground v.1.15,2013-05-02 18:24:00,
2013-05-02 11:33:00,65.6,60.0,30.08,WNW,288,4.0,4.0,82,0.00,,,0.00,Wunderground v.1.15,2013-05-02 18:33:00,
2013-05-02 11:43:00,66.4,60.0,30.07,WNW,290,4.0,4.0,80,0.00,,,0.00,Wunderground v.1.15,2013-05-02 18:43:00,
2013-05-02 11:53:00,68.0,60.9,30.07,WSW,250,1.0,1.0,78,0.00,,,0.00,Wunderground v.1.15,2013-05-02 18:53:00,
2013-05-02 12:04:00,68.9,60.6,30.07,WSW,254,2.0,4.0,75,0.00,,,0.00,Wunderground v.1.15,2013-05-02 19:04:00,
2013-05-02 12:14:00,69.0,60.0,30.07,WSW,253,4.0,4.0,73,0.00,,,0.00,Wunderground v.1.15,2013-05-02 19:14:00,
2013-05-02 12:24:00,68.0,59.8,30.06,WSW,244,6.0,6.0,75,0.00,,,0.00,Wunderground v.1.15,2013-05-02 19:24:00,
2013-05-02 12:33:00,68.1,58.7,30.06,West,274,4.0,4.0,72,0.00,,,0.00,Wunderground v.1.15,2013-05-02 19:33:00,
2013-05-02 12:44:00,68.6,58.0,30.06,West,266,4.0,7.0,69,0.00,,,0.00,Wunderground v.1.15,2013-05-02 19:44:00,
2013-05-02 12:53:00,69.7,56.5,30.05,SSW,206,4.0,5.0,63,0.00,,,0.00,Wunderground v.1.15,2013-05-02 19:53:00,
2013-05-02 13:03:00,69.4,56.3,30.05,WNW,291,7.0,13.0,63,0.00,,,0.00,Wunderground v.1.15,2013-05-02 20:03:00,
2013-05-02 13:14:00,69.0,56.7,30.05,NNW,331,6.0,9.0,65,0.00,,,0.00,Wunderground v.1.15,2013-05-02 20:14:00,
2013-05-02 13:24:00,68.3,56.9,30.04,NW,309,6.0,6.0,67,0.00,,,0.00,Wunderground v.1.15,2013-05-02 20:24:00,
2013-05-02 13:33:00,68.2,58.8,30.04,West,264,4.0,4.0,72,0.00,,,0.00,Wunderground v.1.15,2013-05-02 20:33:00,
2013-05-02 13:43:00,69.1,58.5,30.04,WSW,244,5.0,10.0,69,0.00,,,0.00,Wunderground v.1.15,2013-05-02 20:43:00,
2013-05-02 13:53:00,68.6,59.6,30.04,SW,230,7.0,7.0,73,0.00,,,0.00,Wunderground v.1.15,2013-05-02 20:53:00,
2013-05-02 14:04:00,68.6,59.2,30.04,WNW,291,5.0,13.0,72,0.00,,,0.00,Wunderground v.1.15,2013-05-02 21:04:00,
2013-05-02 14:14:00,68.1,59.1,30.03,West,260,8.0,8.0,73,0.00,,,0.00,Wunderground v.1.15,2013-05-02 21:14:00,
2013-05-02 14:24:00,69.0,60.4,30.03,WNW,290,6.0,6.0,74,0.00,,,0.00,Wunderground v.1.15,2013-05-02 21:24:00,
2013-05-02 14:33:00,68.7,59.7,30.03,WNW,287,8.0,12.0,73,0.00,,,0.00,Wunderground v.1.15,2013-05-02 21:33:00,
2013-05-02 14:43:00,69.6,59.4,30.02,SW,233,9.0,9.0,70,0.00,,,0.00,Wunderground v.1.15,2013-05-02 21:43:00,
2013-05-02 14:54:00,69.8,60.0,30.02,West,271,5.0,14.0,71,0.00,,,0.00,Wunderground v.1.15,2013-05-02 21:54:00,
2013-05-02 15:04:00,71.0,59.9,30.02,West,269,6.0,11.0,68,0.00,,,0.00,Wunderground v.1.15,2013-05-02 22:04:00,
2013-05-02 15:13:00,71.9,58.6,30.01,WNW,293,9.0,9.0,63,0.00,,,0.00,Wunderground v.1.15,2013-05-02 22:13:00,
2013-05-02 15:23:00,72.7,58.5,30.00,West,274,8.0,8.0,61,0.00,,,0.00,Wunderground v.1.15,2013-05-02 22:23:00,
2013-05-02 15:33:00,74.0,58.8,30.00,SW,232,4.0,4.0,59,0.00,,,0.00,Wunderground v.1.15,2013-05-02 22:33:00,
2013-05-02 15:44:00,74.6,59.3,30.00,WNW,286,3.0,4.0,59,0.00,,,0.00,Wunderground v.1.15,2013-05-02 22:44:00,
2013-05-02 15:54:00,76.4,58.0,29.99,WSW,250,2.0,2.0,53,0.00,,,0.00,Wunderground v.1.15,2013-05-02 22:54:00,
2013-05-02 16:03:00,76.0,57.6,29.98,WSW,254,3.0,3.0,53,0.00,,,0.00,Wunderground v.1.15,2013-05-02 23:03:00,
2013-05-02 16:13:00,74.1,58.9,29.98,SW,223,4.0,4.0,59,0.00,,,0.00,Wunderground v.1.15,2013-05-02 23:13:00,
2013-05-02 16:24:00,73.1,58.8,29.98,West,277,4.0,4.0,61,0.00,,,0.00,Wunderground v.1.15,2013-05-02 23:24:00,
2013-05-02 16:33:00,72.8,59.5,29.97,WSW,253,4.0,4.0,63,0.00,,,0.00,Wunderground v.1.15,2013-05-02 23:33:00,
2013-05-02 16:44:00,71.7,59.7,29.97,SW,224,5.0,5.0,66,0.00,,,0.00,Wunderground v.1.15,2013-05-02 23:44:00,
2013-05-02 16:54:00,70.6,59.5,29.97,West,261,4.0,4.0,68,0.00,,,0.00,Wunderground v.1.15,2013-05-02 23:54:00,
2013-05-02 17:03:00,71.1,59.2,29.96,SW,229,3.0,3.0,66,0.00,,,0.00,Wunderground v.1.15,2013-05-03 00:03:00,
2013-05-02 17:13:00,72.1,59.2,29.96,NW,308,2.0,2.0,64,0.00,,,0.00,Wunderground v.1.15,2013-05-03 00:13:00,
2013-05-02 17:24:00,72.6,58.4,29.96,SSW,206,1.0,1.0,61,0.00,,,0.00,Wunderground v.1.15,2013-05-03 00:24:00,
2013-05-02 17:34:00,74.3,58.6,29.95,WSW,252,2.0,2.0,58,0.00,,,0.00,Wunderground v.1.15,2013-05-03 00:34:00,
2013-05-02 17:43:00,74.2,57.5,29.95,West,259,1.0,1.0,56,0.00,,,0.00,Wunderground v.1.15,2013-05-03 00:43:00,
2013-05-02 17:53:00,73.9,58.7,29.95,West,268,0.0,0.0,59,0.00,,,0.00,Wunderground v.1.15,2013-05-03 00:53:00,
2013-05-02 18:03:00,72.8,58.6,29.95,WNW,300,0.0,0.0,61,0.00,,,0.00,Wunderground v.1.15,2013-05-03 01:03:00,
2013-05-02 18:14:00,70.7,58.8,29.95,WSW,241,2.0,2.0,66,0.00,,,0.00,Wunderground v.1.15,2013-05-03 01:14:00,
2013-05-02 18:24:00,70.0,59.0,29.95,WSW,246,1.0,2.0,68,0.00,,,0.00,Wunderground v.1.15,2013-05-03 01:24:00,
2013-05-02 18:33:00,70.1,59.0,29.95,West,266,2.0,2.0,68,0.00,,,0.00,Wunderground v.1.15,2013-05-03 01:33:00,
2013-05-02 18:43:00,69.4,59.2,29.95,WSW,254,1.0,1.0,70,0.00,,,0.00,Wunderground v.1.15,2013-05-03 01:43:00,
2013-05-02 18:53:00,67.9,59.3,29.95,WSW,237,1.0,1.0,74,0.00,,,0.00,Wunderground v.1.15,2013-05-03 01:53:00,
2013-05-02 19:04:00,67.0,58.8,29.95,WSW,251,1.0,1.0,75,0.00,,,0.00,Wunderground v.1.15,2013-05-03 02:04:00,
2013-05-02 19:14:00,66.3,58.1,29.95,SSW,200,1.0,1.0,75,0.00,,,0.00,Wunderground v.1.15,2013-05-03 02:14:00,
2013-05-02 19:24:00,65.6,57.8,29.96,SW,234,0.0,0.0,76,0.00,,,0.00,Wunderground v.1.15,2013-05-03 02:24:00,
2013-05-02 19:33:00,65.2,57.8,29.96,WSW,239,0.0,0.0,77,0.00,,,0.00,Wunderground v.1.15,2013-05-03 02:33:00,
2013-05-02 19:43:00,64.7,57.7,29.96,WSW,246,0.0,0.0,78,0.00,,,0.00,Wunderground v.1.15,2013-05-03 02:43:00,
2013-05-02 19:53:00,64.1,57.8,29.96,SSW,207,0.0,0.0,80,0.00,,,0.00,Wunderground v.1.15,2013-05-03 02:53:00,
2013-05-02 20:04:00,63.6,57.7,29.96,SW,214,0.0,0.0,81,0.00,,,0.00,Wunderground v.1.15,2013-05-03 03:04:00,
2013-05-02 20:14:00,63.2,57.6,29.96,SW,225,0.0,0.0,82,0.00,,,0.00,Wunderground v.1.15,2013-05-03 03:14:00,
2013-05-02 20:24:00,63.0,57.8,29.97,SW,225,0.0,0.0,83,0.00,,,0.00,Wunderground v.1.15,2013-05-03 03:24:00,
2013-05-02 20:33:00,62.7,57.5,29.97,SW,225,0.0,0.0,83,0.00,,,0.00,Wunderground v.1.15,2013-05-03 03:33:00,
2013-05-02 20:44:00,62.5,57.6,29.97,SW,225,0.0,0.0,84,0.00,,,0.00,Wunderground v.1.15,2013-05-03 03:44:00,
2013-05-02 20:54:00,62.4,57.5,29.97,SW,225,0.0,0.0,84,0.00,,,0.00,Wunderground v.1.15,2013-05-03 03:54:00,
2013-05-02 21:03:00,62.1,57.2,29.97,SW,225,0.0,0.0,84,0.00,,,0.00,Wunderground v.1.15,2013-05-03 04:03:00,
2013-05-02 21:13:00,61.8,57.2,29.97,SW,225,0.0,0.0,85,0.00,,,0.00,Wunderground v.1.15,2013-05-03 04:13:00,
2013-05-02 21:24:00,61.6,57.4,29.98,SW,225,0.0,0.0,86,0.00,,,0.00,Wunderground v.1.15,2013-05-03 04:24:00,
2013-05-02 21:33:00,61.5,57.3,29.98,SW,225,0.0,0.0,86,0.00,,,0.00,Wunderground v.1.15,2013-05-03 04:33:00,
2013-05-02 21:43:00,61.3,57.1,29.98,SW,225,0.0,0.0,86,0.00,,,0.00,Wunderground v.1.15,2013-05-03 04:43:00,
2013-05-02 21:53:00,61.4,57.2,29.99,SW,225,0.0,0.0,86,0.00,,,0.00,Wunderground v.1.15,2013-05-03 04:53:00,
2013-05-02 22:04:00,61.4,57.5,29.99,ESE,105,0.0,0.0,87,0.00,,,0.00,Wunderground v.1.15,2013-05-03 05:04:00,
2013-05-02 22:14:00,61.4,57.8,29.99,ESE,105,0.0,0.0,88,0.00,,,0.00,Wunderground v.1.15,2013-05-03 05:14:00,
2013-05-02 22:24:00,61.4,58.1,29.99,ESE,105,0.0,0.0,89,0.00,,,0.00,Wunderground v.1.15,2013-05-03 05:24:00,
2013-05-02 22:33:00,61.2,57.9,29.99,ESE,105,0.0,0.0,89,0.00,,,0.00,Wunderground v.1.15,2013-05-03 05:33:00,
2013-05-02 22:43:00,60.9,57.6,29.99,ESE,105,0.0,0.0,89,0.00,,,0.00,Wunderground v.1.15,2013-05-03 05:43:00,
2013-05-02 22:54:00,60.5,57.2,29.99,ESE,105,0.0,0.0,89,0.00,,,0.00,Wunderground v.1.15,2013-05-03 05:54:00,
2013-05-02 23:03:00,60.2,56.9,30.00,ESE,105,0.0,0.0,89,0.00,,,0.00,Wunderground v.1.15,2013-05-03 06:03:00,
2013-05-02 23:14:00,60.4,57.8,30.00,ESE,105,0.0,0.0,91,0.00,,,0.00,Wunderground v.1.15,2013-05-03 06:14:00,
2013-05-02 23:24:00,60.1,57.2,29.99,ESE,105,0.0,0.0,90,0.00,,,0.00,Wunderground v.1.15,2013-05-03 06:24:00,
2013-05-02 23:33:00,59.7,56.8,29.99,ESE,105,0.0,0.0,90,0.00,,,0.00,Wunderground v.1.15,2013-05-03 06:33:00,
2013-05-02 23:44:00,59.3,56.4,30.00,ESE,105,0.0,0.0,90,0.00,,,0.00,Wunderground v.1.15,2013-05-03 06:44:00,
2013-05-02 23:53:00,59.3,56.7,30.00,ESE,105,0.0,0.0,91,0.00,,,0.00,Wunderground v.1.15,2013-05-03 06:53:00,